Regional Weather Roundup
Issued by NWS

Home | Current Version | Previous Version | Text Only | Print | Product List | Glossary On
Versions: 1 2 3 4 5 6 7 8 9 10 11 12 13 14 15 16 17 18 19 20 21 22 23 24 25 26 27 28 29 30 31 32 33 34 35 36 37 38 39 40 41 42 43 44 45 46 47 48 49 50
269
ASUS44 KJAN 290610
RWRMS

MISSISSIPPI HOURLY WEATHER ROUNDUP
NATIONAL WEATHER SERVICE JACKSON MS
100 AM CDT TUE JUL 29 2014

NOTE: "FAIR: INDICATES FEW OR NO CLOUDS BELOW 12,000 FEET WITH NO
SIGNIFICANT WEATHER AND/OR OBSTRUCTIONS TO VISIBILITY.

MSZ001>002-007>008-010>013-018>021-025>028-034>036-290700-
NORTHWEST MISSISSIPPI

CITY           SKY/WX    TMP DP  RH WIND       PRES   REMARKS
CLARKSDALE     FAIR      68  68 100 CALM      30.05F
CLEVELAND      FAIR      68  67  96 CALM      30.04F
GREENWOOD      CLEAR     67  65  93 CALM      30.05S
6HR MIN TEMP:  67; 6HR MAX TEMP:  83;

GREENVILLE     CLEAR     68  66  93 CALM      30.04F
6HR MIN TEMP:  68; 6HR MAX TEMP:  84;

GRENADA        FAIR      68  64  88 CALM      30.05S
OLIVE BRANCH   PTCLDY    72  70  94 CALM      30.06F
OXFORD         FAIR      64  64 100 CALM      30.06F
TUNICA         PTCLDY    70  68  94 CALM      30.05F
$$

MSZ003>006-009-014>017-022>024-029>033-037>039-290700-
NORTHEAST MISSISSIPPI

CITY           SKY/WX    TMP DP  RH WIND       PRES   REMARKS
BELMONT        FAIR      66  64  91 CALM      30.05F
COLUMBUS AFB   CLEAR     69  65  86 N2        30.03F
6HR MIN TEMP:  69; 6HR MAX TEMP:  82;

CORINTH        FAIR      66  63  88 NW5       30.05F
GOLDN TRIANGLE CLEAR     70  63  78 N5        30.04S
STARKVILLE     FAIR      68  64  88 CALM      30.04S
TUPELO         CLEAR     70  64  81 CALM      30.04F
6HR MIN TEMP:  70; 6HR MAX TEMP:  81;

$$

MSZ040-058-290700-
CENTRAL MISSISSIPPI

CITY           SKY/WX    TMP DP  RH WIND       PRES   REMARKS
JACKSON INTL   CLEAR     72  65  78 N3        30.04F
6HR MIN TEMP:  71; 6HR MAX TEMP:  87;

JACKSON HAWKNS CLEAR     74  63  68 CALM      30.04F
6HR MIN TEMP:  74; 6HR MAX TEMP:  87;

MERIDIAN KEY   CLEAR     70  65  84 CALM      30.02F
6HR MIN TEMP:  70; 6HR MAX TEMP:  87;

MERIDIAN NAS   CLEAR     71  64  78 NW3       30.02F
6HR MIN TEMP:  71; 6HR MAX TEMP:  88;

RAYMOND        FAIR      72  66  83 CALM      30.04F
VICKSBURG      CLEAR     73  66  78 N5        30.04F
6HR MIN TEMP:  73; 6HR MAX TEMP:  85;

$$

MSZ059>079-290700-
SOUTH MISSISSIPPI

CITY           SKY/WX    TMP DP  RH WIND       PRES   REMARKS
BROOKHAVEN     FAIR      72  68  88 CALM      30.06F
COLUMBIA       FAIR      73  70  88 N5        30.01F
HATTIESBURG    PTCLDY    77  68  73 N6        30.03R
6HR MIN TEMP:  77; 6HR MAX TEMP:  90;

MCCOMB         PTCLDY    76  69  79 N5        30.03F
6HR MIN TEMP:  76; 6HR MAX TEMP:  82;

NATCHEZ        MOCLDY    73  70  88 CALM      30.04F
6HR MIN TEMP:  73; 6HR MAX TEMP:  82;

PINE BELT      PTCLDY    73  64  73 N7        30.04S
6HR MIN TEMP:  73; 6HR MAX TEMP:  88;

$$

MSZ080>082-290700-
COASTAL MISSISSIPPI

CITY           SKY/WX    TMP DP  RH WIND       PRES   REMARKS
BILOXI         PTCLDY    82  74  76 VRB5      29.99S
6HR MIN TEMP:  82; 6HR MAX TEMP:  89;

PASCAGOULA     CLEAR     80  72  76 N7        29.98F
6HR MIN TEMP:  80; 6HR MAX TEMP:  89;

GULFPORT       PTCLDY    85  73  67 N9        29.99S HX  91
6HR MIN TEMP:  84; 6HR MAX TEMP:  92;

$$



USA.gov is the U.S. government's official web portal to all federal, state and local government web resources and services.